Volver al catálogo

LT-1 01A

ActivoCienciaSSO
NORAD 51284·PAYLOAD·🇨🇳 China

Lanzado Jan 25, 2022 desde Jiuquan Satellite Launch Center

Loading…

Próximos Pases (próximas 24 horas)

TLE

ActualizadoSource: Space-Track

Época: Sep 14, 2026, 14:13 UTC

1 51284U 22007A   26257.59295519  .00000398  00000-0  48819-4 0  9992
2 51284  97.8111 263.7481 0001592  90.2509 269.8890 14.88420086251777

Sigue LT-1 01A en tiempo real con AllMySat

Download on the App Store